Miscellaneous Local Product
Issued by NWS Hastings, NE

Home | Current Version | Previous Version | Graphics & Text | Print | Product List | Glossary On
Versions: 1 2 3 4 5 6 7 8 9 10 11 12 13 14 15 16 17 18 19 20 21 22 23 24 25 26 27 28 29 30 31 32 33 34 35 36 37 38 39 40 41 42 43 44 45 46 47 48 49 50
194
AXUS43 KGID 052102
MISGRI

GID CWA HOURLY WEATHER ROUNDUP
NATIONAL WEATHER SERVICE HASTINGS NE
300 PM CST MON DEC 05 2016

NOTE: "FAIR" INDICATES FEW OR NO CLOUDS BELOW 12,000 FEET WITH NO
SIGNIFICANT WEATHER AND/OR OBSTRUCTIONS TO VISIBILITY.

...SOUTH CENTRAL NEBRASKA...

CITY           SKY/WX    TMP DP  RH WIND       PRES   REMARKS
GRAND ISLAND   CLOUDY    47  34  60 S18       29.58R
HASTINGS       MOSUNNY   49  34  56 S15G24    29.59S
KEARNEY        PTSUNNY   48  30  49 S13       29.58R
ORD            MOSUNNY   49  27  42 CALM      29.56R
YORK           CLOUDY    48  37  66 S21       29.60S
AURORA         CLOUDY    49  35  58 S15G21    29.58S
LEXINGTON      PTSUNNY   52  27  38 CALM      29.57S
HOLDREGE       MOSUNNY   50  29  45 S8        29.58R
HEBRON         SUNNY     51  37  57 S17G23    29.63F

...NEBRASKA PANHANDLE...

CITY           SKY/WX    TMP DP  RH WIND       PRES   REMARKS
CHADRON        LGT SNOW  27  20  75 N21G35    29.76R WCI  13
ALLIANCE       PTSUNNY   31  18  58 NW23G36   29.69R WCI  18
SCOTTSBLUFF    CLOUDY    32  15  49 NW28G36   29.76R WCI  18
SIDNEY         NOT AVBL

...WESTERN AND NORTH CENTRAL NEBRASKA...

CITY           SKY/WX    TMP DP  RH WIND       PRES   REMARKS
VALENTINE      CLOUDY    30  24  78 NW25G35   29.66R WCI  16
AINSWORTH      CLOUDY    37  29  74 NW21G35   29.63R WCI  26
ONEILL         SUNNY     45  30  56 NW20      29.58R
BROKEN BOW     MOSUNNY   56  28  34 N21G30    29.55R
IMPERIAL       MOSUNNY   50   9  19 NW33G41   29.63R
NORTH PLATTE   SUNNY     54  17  23 NW30G41   29.60R
MCCOOK         CLOUDY    48  24  39 NW6       29.62R

...EASTERN NEBRASKA...

CITY           SKY/WX    TMP DP  RH WIND       PRES   REMARKS
NORFOLK        MOSUNNY   44  33  65 S8        29.57R
SO SIOUX CITY  CLOUDY    47  35  63 S18G29    29.58F
TEKAMAH        CLOUDY    46  37  71 S12       29.62S
COLUMBUS       CLOUDY    45  36  70 S12       29.60R
ALBION         CLOUDY    44  32  61 S7        29.58R
OMAHA EPPLEY   PTSUNNY   52  36  54 S22G35    29.63F
OFFUTT AFB     MOSUNNY   52  37  55 S24G30    29.65F
MILLARD        MOSUNNY   52  35  51 S17G26    29.64F
LINCOLN        SUNNY     51  36  56 S21       29.62F
NEBRASKA CITY  SUNNY     51  31  47 S18       29.69S
BEATRICE       SUNNY     54  32  44 S21       29.65F
FALLS CITY     SUNNY     50  37  61 S12G22    29.71S

...NORTHERN KANSAS...

CITY           SKY/WX    TMP DP  RH WIND       PRES   REMARKS
GOODLAND       MOSUNNY   59  21  23 NE14      29.57R
HILL CITY      SUNNY     51  29  42 SE7       29.59R
NORTON         CLEAR     52  23  32 E9        29.58R
PHILLIPSBURG   SUNNY     50  30  46 SE8       29.60S
SMITH CENTER   SUNNY     52  32  46 S9        29.61S
BELOIT         SUNNY     54  34  47 S17       29.62S
HAYS           SUNNY     55  32  41 S10       29.59F
RUSSELL        SUNNY     55  35  47 S21       29.57F
CONCORDIA      SUNNY     53  35  50 S12       29.66R
SALINA         SUNNY     54  35  48 S17G29    29.64S
TOPEKA         SUNNY     51  37  58 S17       29.71F



USA.gov is the U.S. government's official web portal to all federal, state and local government web resources and services.